Time,TemperatureF,DewpointF,PressureIn,WindDirection,WindDirectionDegrees,WindSpeedMPH,WindSpeedGustMPH,Humidity,HourlyPrecipIn,Conditions,Clouds,dailyrainin,SolarRadiationWatts/m^2,SoftwareType,DateUTC
2013-12-29 00:22:00,15.0,5.0,-100.00,NNW,338,25.0,35.0,63,0.00,,,-99.99,0.000000,,2013-12-29 06:22:00,
2013-12-29 00:32:00,15.0,5.0,-100.00,NNW,338,25.0,35.0,63,0.00,,,-99.99,0.000000,,2013-12-29 06:32:00,
2013-12-29 00:43:00,15.0,5.0,-100.00,NNW,338,25.0,35.0,63,0.00,,,-99.99,0.000000,,2013-12-29 06:43:00,
2013-12-29 00:52:00,15.0,5.0,-100.00,NNW,338,25.0,35.0,63,0.00,,,-99.99,0.000000,,2013-12-29 06:52:00,
2013-12-29 01:22:00,12.0,2.0,-100.00,NNW,337,22.0,35.0,64,0.00,,,0.00,0.000000,,2013-12-29 07:22:00,
2013-12-29 01:32:00,12.0,2.0,-100.00,NNW,337,22.0,35.0,64,0.00,,,0.00,0.000000,,2013-12-29 07:32:00,
2013-12-29 01:42:00,12.0,2.0,-100.00,NNW,337,22.0,35.0,64,0.00,,,0.00,0.000000,,2013-12-29 07:42:00,
2013-12-29 01:52:00,12.0,2.0,-100.00,NNW,337,22.0,35.0,64,0.00,,,0.00,0.000000,,2013-12-29 07:52:00,
2013-12-29 02:22:00,12.0,3.0,-100.00,NNW,335,21.0,34.0,65,0.00,,,0.00,0.000000,,2013-12-29 08:22:00,
2013-12-29 02:32:00,12.0,3.0,-100.00,NNW,335,21.0,34.0,65,0.00,,,0.00,0.000000,,2013-12-29 08:32:00,
2013-12-29 02:42:00,12.0,3.0,-100.00,NNW,335,21.0,34.0,65,0.00,,,0.00,0.000000,,2013-12-29 08:42:00,
2013-12-29 02:52:00,12.0,3.0,-100.00,NNW,335,21.0,34.0,65,0.00,,,0.00,0.000000,,2013-12-29 08:52:00,
2013-12-29 03:22:00,11.0,1.0,-100.00,NNW,332,24.0,35.0,63,0.00,,,0.00,0.000000,,2013-12-29 09:22:00,
2013-12-29 03:33:00,11.0,1.0,-100.00,NNW,332,24.0,35.0,63,0.00,,,0.00,0.000000,,2013-12-29 09:33:00,
2013-12-29 03:43:00,11.0,1.0,-100.00,NNW,332,24.0,35.0,63,0.00,,,0.00,0.000000,,2013-12-29 09:43:00,
2013-12-29 03:53:00,11.0,1.0,-100.00,NNW,332,24.0,35.0,63,0.00,,,0.00,0.000000,,2013-12-29 09:53:00,
2013-12-29 04:23:00,10.0,0.0,-100.00,NNW,327,22.0,32.0,63,0.00,,,0.00,0.000000,,2013-12-29 10:23:00,
2013-12-29 04:33:00,10.0,0.0,-100.00,NNW,327,22.0,32.0,63,0.00,,,0.00,0.000000,,2013-12-29 10:33:00,
2013-12-29 04:43:00,10.0,0.0,-100.00,NNW,327,22.0,32.0,63,0.00,,,0.00,0.000000,,2013-12-29 10:43:00,
2013-12-29 04:53:00,10.0,0.0,-100.00,NNW,327,22.0,32.0,63,0.00,,,0.00,0.000000,,2013-12-29 10:53:00,
2013-12-29 05:22:00,9.0,-2.0,-100.00,NNW,342,27.0,37.0,61,0.00,,,0.00,0.000000,,2013-12-29 11:22:00,
2013-12-29 05:33:00,9.0,-2.0,-100.00,NNW,342,27.0,37.0,61,0.00,,,0.00,0.000000,,2013-12-29 11:33:00,
2013-12-29 05:42:00,9.0,-2.0,-100.00,NNW,342,27.0,37.0,61,0.00,,,0.00,0.000000,,2013-12-29 11:42:00,
2013-12-29 05:53:00,9.0,-2.0,-100.00,NNW,342,27.0,37.0,61,0.00,,,0.00,0.000000,,2013-12-29 11:53:00,
2013-12-29 06:22:00,8.0,-3.0,-100.00,NNW,336,21.0,35.0,60,0.00,,,0.00,0.000000,,2013-12-29 12:22:00,
2013-12-29 06:32:00,8.0,-3.0,-100.00,NNW,336,21.0,35.0,60,0.00,,,0.00,0.000000,,2013-12-29 12:32:00,
2013-12-29 06:42:00,8.0,-3.0,-100.00,NNW,336,21.0,35.0,60,0.00,,,0.00,0.000000,,2013-12-29 12:42:00,
2013-12-29 06:52:00,8.0,-3.0,-100.00,NNW,336,21.0,35.0,60,0.00,,,0.00,0.000000,,2013-12-29 12:52:00,
2013-12-29 07:22:00,6.0,-7.0,-100.00,NNW,336,21.0,34.0,54,0.00,,,0.00,0.000000,,2013-12-29 13:22:00,
2013-12-29 07:32:00,6.0,-7.0,-100.00,NNW,336,21.0,34.0,54,0.00,,,0.00,0.000000,,2013-12-29 13:32:00,
2013-12-29 07:42:00,6.0,-7.0,-100.00,NNW,336,21.0,34.0,54,0.00,,,0.00,0.000000,,2013-12-29 13:42:00,
2013-12-29 07:53:00,6.0,-7.0,-100.00,NNW,336,21.0,34.0,54,0.00,,,0.00,0.000000,,2013-12-29 13:53:00,
2013-12-29 08:22:00,5.0,-9.0,-100.00,NNW,335,19.0,33.0,51,0.00,,,0.00,0.000000,,2013-12-29 14:22:00,
2013-12-29 08:32:00,5.0,-9.0,-100.00,NNW,335,19.0,33.0,51,0.00,,,0.00,0.000000,,2013-12-29 14:32:00,
2013-12-29 08:42:00,5.0,-9.0,-100.00,NNW,335,19.0,33.0,51,0.00,,,0.00,0.000000,,2013-12-29 14:42:00,
2013-12-29 08:52:00,5.0,-9.0,-100.00,NNW,335,19.0,33.0,51,0.00,,,0.00,0.000000,,2013-12-29 14:52:00,
2013-12-29 09:21:00,5.0,-10.0,-100.00,NNW,334,17.0,28.0,50,0.00,,,0.00,0.000000,,2013-12-29 15:21:00,
2013-12-29 09:33:00,5.0,-10.0,-100.00,NNW,334,17.0,28.0,50,0.00,,,0.00,0.000000,,2013-12-29 15:33:00,
2013-12-29 09:44:00,5.0,-10.0,-100.00,NNW,334,17.0,28.0,50,0.00,,,0.00,0.000000,,2013-12-29 15:44:00,
2013-12-29 09:53:00,5.0,-10.0,-100.00,NNW,334,17.0,28.0,50,0.00,,,0.00,0.000000,,2013-12-29 15:53:00,
2013-12-29 10:23:00,6.0,-10.0,-100.00,NNW,331,3.0,25.0,47,0.00,,,0.00,0.000000,,2013-12-29 16:23:00,
2013-12-29 10:33:00,6.0,-10.0,-100.00,NNW,331,3.0,25.0,47,0.00,,,0.00,0.000000,,2013-12-29 16:33:00,
2013-12-29 10:43:00,6.0,-10.0,-100.00,NNW,331,3.0,25.0,47,0.00,,,0.00,0.000000,,2013-12-29 16:43:00,
2013-12-29 10:53:00,6.0,-10.0,-100.00,NNW,331,3.0,25.0,47,0.00,,,0.00,0.000000,,2013-12-29 16:53:00,
2013-12-29 11:22:00,10.0,-9.0,-100.00,NNW,342,16.0,25.0,40,0.00,,,0.00,0.000000,,2013-12-29 17:22:00,
2013-12-29 11:33:00,10.0,-9.0,-100.00,NNW,342,16.0,25.0,40,0.00,,,0.00,0.000000,,2013-12-29 17:33:00,
2013-12-29 11:42:00,10.0,-9.0,-100.00,NNW,342,16.0,25.0,40,0.00,,,0.00,0.000000,,2013-12-29 17:42:00,
2013-12-29 11:52:00,10.0,-9.0,-100.00,NNW,342,16.0,25.0,40,0.00,,,0.00,0.000000,,2013-12-29 17:52:00,
2013-12-29 12:22:00,13.0,-9.0,-100.00,NNW,342,14.0,22.0,35,0.00,,,0.00,0.000000,,2013-12-29 18:22:00,
2013-12-29 12:32:00,13.0,-9.0,-100.00,NNW,342,14.0,22.0,35,0.00,,,0.00,0.000000,,2013-12-29 18:32:00,
2013-12-29 12:42:00,13.0,-9.0,-100.00,NNW,342,14.0,22.0,35,0.00,,,0.00,0.000000,,2013-12-29 18:42:00,
2013-12-29 12:53:00,13.0,-9.0,-100.00,NNW,342,14.0,22.0,35,0.00,,,0.00,0.000000,,2013-12-29 18:53:00,
2013-12-29 13:21:00,15.0,-12.0,-100.00,NNW,339,14.0,21.0,28,0.00,,,0.00,0.000000,,2013-12-29 19:21:00,
2013-12-29 13:33:00,15.0,-12.0,-100.00,NNW,339,14.0,21.0,28,0.00,,,0.00,0.000000,,2013-12-29 19:33:00,
2013-12-29 13:43:00,15.0,-12.0,-100.00,NNW,339,14.0,21.0,28,0.00,,,0.00,0.000000,,2013-12-29 19:43:00,
2013-12-29 13:52:00,15.0,-12.0,-100.00,NNW,339,14.0,21.0,28,0.00,,,0.00,0.000000,,2013-12-29 19:52:00,
2013-12-29 14:22:00,16.0,-13.0,-100.00,NNW,345,12.0,20.0,26,0.00,,,0.00,0.000000,,2013-12-29 20:22:00,
2013-12-29 14:32:00,16.0,-13.0,-100.00,NNW,345,12.0,20.0,26,0.00,,,0.00,0.000000,,2013-12-29 20:32:00,
2013-12-29 14:42:00,16.0,-13.0,-100.00,NNW,345,12.0,20.0,26,0.00,,,0.00,0.000000,,2013-12-29 20:42:00,
2013-12-29 14:52:00,16.0,-13.0,-100.00,NNW,345,12.0,20.0,26,0.00,,,0.00,0.000000,,2013-12-29 20:52:00,
2013-12-29 15:22:00,17.0,-13.0,-100.00,NNW,328,10.0,18.0,25,0.00,,,0.00,0.000000,,2013-12-29 21:22:00,
2013-12-29 15:33:00,17.0,-13.0,-100.00,NNW,328,10.0,18.0,25,0.00,,,0.00,0.000000,,2013-12-29 21:33:00,
2013-12-29 15:43:00,17.0,-13.0,-100.00,NNW,328,10.0,18.0,25,0.00,,,0.00,0.000000,,2013-12-29 21:43:00,
2013-12-29 15:53:00,17.0,-13.0,-100.00,NNW,328,10.0,18.0,25,0.00,,,0.00,0.000000,,2013-12-29 21:53:00,
2013-12-29 16:23:00,18.0,-13.0,-100.00,NW,326,7.0,15.0,24,0.00,,,0.00,0.000000,,2013-12-29 22:23:00,
2013-12-29 16:33:00,18.0,-13.0,-100.00,NW,326,7.0,15.0,24,0.00,,,0.00,0.000000,,2013-12-29 22:33:00,
2013-12-29 16:42:00,18.0,-13.0,-100.00,NW,326,7.0,15.0,24,0.00,,,0.00,0.000000,,2013-12-29 22:42:00,
2013-12-29 16:52:00,18.0,-13.0,-100.00,NW,326,7.0,15.0,24,0.00,,,0.00,0.000000,,2013-12-29 22:52:00,
2013-12-29 17:22:00,15.0,-14.0,-100.00,NNW,348,4.0,10.0,25,0.00,,,0.00,0.000000,,2013-12-29 23:22:00,
2013-12-29 17:33:00,15.0,-14.0,-100.00,NNW,348,4.0,10.0,25,0.00,,,0.00,0.000000,,2013-12-29 23:33:00,
2013-12-29 17:42:00,15.0,-14.0,-100.00,NNW,348,4.0,10.0,25,0.00,,,0.00,0.000000,,2013-12-29 23:42:00,
2013-12-29 17:52:00,15.0,-14.0,-100.00,NNW,348,4.0,10.0,25,0.00,,,0.00,0.000000,,2013-12-29 23:52:00,
2013-12-29 18:22:00,9.0,-14.0,-100.00,NE,42,1.0,5.0,34,0.00,,,0.00,0.000000,,2013-12-30 00:22:00,
2013-12-29 18:32:00,9.0,-14.0,-100.00,NE,42,1.0,5.0,34,0.00,,,0.00,0.000000,,2013-12-30 00:32:00,
2013-12-29 18:42:00,9.0,-14.0,-100.00,NE,42,1.0,5.0,34,0.00,,,0.00,0.000000,,2013-12-30 00:42:00,
2013-12-29 18:52:00,9.0,-14.0,-100.00,NE,42,1.0,5.0,34,0.00,,,0.00,0.000000,,2013-12-30 00:52:00,
2013-12-29 19:42:00,5.0,-16.0,-100.00,SE,146,2.0,3.0,37,0.00,,,0.00,0.000000,,2013-12-30 01:42:00,
2013-12-29 19:52:00,5.0,-16.0,-100.00,SE,146,2.0,3.0,37,0.00,,,0.00,0.000000,,2013-12-30 01:52:00,
2013-12-29 20:22:00,5.0,-9.0,-100.00,South,172,3.0,6.0,51,0.00,,,0.00,0.000000,,2013-12-30 02:22:00,
2013-12-29 20:32:00,5.0,-9.0,-100.00,South,172,3.0,6.0,51,0.00,,,0.00,0.000000,,2013-12-30 02:32:00,
2013-12-29 20:42:00,5.0,-9.0,-100.00,South,172,3.0,6.0,51,0.00,,,0.00,0.000000,,2013-12-30 02:42:00,
2013-12-29 20:52:00,5.0,-9.0,-100.00,South,172,3.0,6.0,51,0.00,,,0.00,0.000000,,2013-12-30 02:52:00,
2013-12-29 21:21:00,4.0,-9.0,-100.00,SSE,152,6.0,8.0,53,0.00,,,0.00,0.000000,,2013-12-30 03:21:00,
2013-12-29 21:33:00,4.0,-9.0,-100.00,SSE,152,6.0,8.0,53,0.00,,,0.00,0.000000,,2013-12-30 03:33:00,
2013-12-29 21:43:00,4.0,-9.0,-100.00,SSE,152,6.0,8.0,53,0.00,,,0.00,0.000000,,2013-12-30 03:43:00,
2013-12-29 21:54:00,4.0,-9.0,-100.00,SSE,152,6.0,8.0,53,0.00,,,0.00,0.000000,,2013-12-30 03:54:00,
2013-12-29 22:23:00,5.0,-6.0,-100.00,SSE,163,7.0,8.0,60,0.00,,,0.00,0.000000,,2013-12-30 04:23:00,
2013-12-29 22:33:00,5.0,-6.0,-100.00,SSE,163,7.0,8.0,60,0.00,,,0.00,0.000000,,2013-12-30 04:33:00,
2013-12-29 22:43:00,5.0,-6.0,-100.00,SSE,163,7.0,8.0,60,0.00,,,0.00,0.000000,,2013-12-30 04:43:00,
2013-12-29 22:52:00,5.0,-6.0,-100.00,SSE,163,7.0,8.0,60,0.00,,,0.00,0.000000,,2013-12-30 04:52:00,
2013-12-29 23:23:00,7.0,-6.0,-100.00,SSE,152,9.0,10.0,55,0.00,,,0.00,0.000000,,2013-12-30 05:23:00,
2013-12-29 23:33:00,7.0,-6.0,-100.00,SSE,152,9.0,10.0,55,0.00,,,0.00,0.000000,,2013-12-30 05:33:00,
2013-12-29 23:43:00,7.0,-6.0,-100.00,SSE,152,9.0,10.0,55,0.00,,,0.00,0.000000,,2013-12-30 05:43:00,
2013-12-29 23:53:00,7.0,-6.0,-100.00,SSE,152,9.0,10.0,55,0.00,,,0.00,0.000000,,2013-12-30 05:53:00,